Wind_Speed
58 58 60 60 58 58 59 59 58 59 60 60 59 58 58 56 54 51 49 48 47 48 48 46 48 44 35 34 37 39 41 40 38 34 31 29 29 29 27 24 22 19 19 22 24 25 25 24 23 24 24 24 25 24 24 23 23 23 22 23 24 22 20 19 20 20 19 19 19 18 18 19 19 19 18 18 18 18 19 20 20 20 22 23 24 24
57 60 59 54 53 53 55 58 59 59 61 60 59 58 58 57 54 52 51 50 49 50 50 48 49 47 38 35 37 39 42 42 39 35 32 31 31 31 29 26 26 25 23 22 23 23 25 25 25 25 25 25 25 26 26 25 25 25 23 23 25 24 21 21 21 21 21 21 20 19 19 19 19 18 18 18 19 19 20 21 21 22 23 24 26 26
57 61 60 54 52 52 53 57 60 61 62 62 61 59 59 58 56 54 52 51 51 52 52 51 51 49 43 38 38 41 43 42 40 37 34 33 33 31 29 29 28 27 25 24 24 24 25 25 26 26 26 26 26 28 28 27 27 27 26 26 27 26 24 23 23 23 23 22 21 20 20 20 19 19 19 20 20 20 22 24 24 24 25 26 26 27
58 59 61 58 55 55 56 57 59 62 64 64 63 62 60 59 57 56 53 52 53 53 54 53 53 53 47 43 41 42 43 42 40 39 37 35 34 32 32 31 29 27 27 27 27 27 27 26 27 27 27 27 28 28 28 28 28 28 28 28 28 27 25 25 25 24 24 24 22 21 21 20 19 20 20 21 21 23 25 26 26 26 26 26 25 25
59 56 57 58 58 59 59 59 59 61 63 64 64 63 61 59 58 57 55 54 54 54 55 55 56 56 52 48 43 41 44 44 40 40 39 36 34 34 33 32 29 28 28 29 30 30 30 29 28 27 27 28 28 27 28 29 30 29 29 30 30 28 27 26 25 25 25 24 23 22 22 21 21 22 22 22 23 26 27 27 27 27 26 26 26 26
55 53 54 55 56 58 58 58 59 59 60 61 61 60 59 58 57 57 57 56 56 55 55 56 60 58 54 51 47 42 44 45 43 42 40 36 34 33 32 30 30 29 29 30 32 33 33 31 30 29 28 28 28 27 28 30 31 30 30 31 30 29 28 27 26 26 26 25 24 23 22 23 23 22 22 23 26 27 27 27 27 27 27 27 27 27
50 49 50 53 54 54 55 56 58 58 59 60 58 57 58 58 58 58 58 58 58 57 56 57 61 61 57 53 49 45 44 45 45 43 41 37 34 33 31 29 30 30 29 31 33 35 36 35 33 31 29 29 29 29 31 31 31 31 31 31 31 30 29 28 28 27 26 25 24 24 23 24 23 22 23 25 27 27 27 28 27 27 28 28 28 28
45 45 46 49 51 52 54 55 55 56 58 58 56 57 58 58 59 60 58 57 56 56 56 57 59 62 60 54 50 48 46 45 45 44 42 39 36 34 33 30 30 30 30 31 33 35 37 37 35 33 32 31 31 32 33 32 30 30 31 31 31 30 30 30 30 28 26 25 24 25 25 24 24 23 25 27 28 28 28 28 28 29 29 28 28 28
49 46 42 44 47 49 50 50 50 51 54 57 56 56 58 58 60 59 57 56 55 53 54 54 55 61 64 57 52 51 49 47 46 43 41 40 38 36 35 32 30 31 32 32 32 33 35 36 36 35 34 33 32 33 34 33 33 32 31 31 30 30 29 29 30 28 26 25 25 25 25 25 25 25 27 29 29 29 29 29 29 29 29 29 29 28
65 55 48 47 45 44 44 42 43 45 48 53 55 55 55 57 58 57 55 55 53 54 56 55 54 59 65 61 56 54 51 49 48 45 42 40 38 37 36 34 33 32 33 33 32 31 32 33 34 35 36 35 34 33 35 36 36 35 33 32 31 30 30 30 29 28 27 26 25 25 24 25 26 27 28 30 30 30 30 30 30 30 30 30 29 29
77 67 61 54 43 39 41 40 40 41 43 46 49 53 54 56 57 56 55 54 52 56 59 58 56 59 65 64 60 58 53 49 49 48 45 42 38 37 37 36 36 34 33 32 31 29 29 30 32 34 34 34 35 35 35 36 37 37 36 35 33 32 32 31 31 30 29 29 28 27 26 26 27 28 29 30 30 30 30 30 30 30 30 30 30 30
82 79 74 61 48 43 43 42 41 39 40 40 42 48 51 54 56 56 57 56 57 60 59 58 59 62 68 67 62 60 55 50 49 49 46 42 38 37 37 37 37 36 34 32 30 27 27 29 30 32 32 32 33 34 35 36 38 39 39 38 37 35 34 33 34 33 33 33 32 31 30 29 29 30 31 30 30 31 31 30 31 31 30 30 31 31
83 83 81 75 67 59 51 48 44 39 39 38 37 42 46 49 51 55 57 57 60 63 59 59 62 66 71 68 61 60 58 51 49 48 45 42 40 38 37 38 38 38 36 33 31 28 26 28 29 31 32 31 31 31 33 35 37 39 39 40 40 39 38 37 37 37 37 37 36 36 35 34 33 33 32 32 31 31 32 32 32 32 32 32 32 33
82 79 79 82 82 75 66 56 45 38 38 37 35 37 41 43 44 48 52 52 55 58 58 60 64 67 70 66 60 60 60 54 48 46 45 41 39 37 37 39 39 38 38 36 34 32 29 29 28 29 30 30 29 30 31 32 34 37 38 40 41 41 41 42 41 40 40 40 39 39 39 38 37 36 34 33 33 33 33 33 33 33 33 34 34 35
77 74 72 78 82 79 74 65 55 49 46 44 40 38 41 43 43 44 45 45 45 46 51 57 62 67 67 62 58 60 62 59 51 46 44 40 36 37 38 40 40 39 38 37 35 34 32 31 30 29 29 28 28 29 30 30 31 32 35 37 40 41 43 43 43 42 42 41 41 40 40 40 39 38 37 35 34 34 34 35 35 35 35 35 35 36
74 74 70 69 71 71 70 69 68 66 63 61 57 54 50 46 45 45 44 44 42 41 47 56 61 64 64 61 59 60 63 64 58 50 46 41 36 37 40 40 40 39 37 37 36 34 33 33 32 32 30 28 28 29 30 30 29 30 31 33 35 38 40 41 42 42 42 41 42 42 40 40 40 39 38 37 36 36 37 37 37 36 36 36 37 37
72 74 71 66 67 68 67 66 67 68 68 69 67 65 60 53 49 47 45 43 42 44 47 50 55 59 62 64 62 61 63 65 62 53 48 46 41 39 41 40 38 37 37 36 36 35 34 33 33 33 31 29 29 31 31 30 30 30 30 31 31 33 34 36 38 39 40 40 41 41 40 39 39 39 39 38 38 38 39 39 38 38 38 38 39 39
71 72 71 68 65 65 63 59 59 63 67 70 71 70 66 63 61 56 53 48 44 47 48 46 49 53 58 66 65 61 61 62 63 58 50 47 46 43 42 41 39 37 37 36 34 35 35 34 33 32 31 31 31 32 32 31 32 31 31 31 31 31 32 33 34 35 36 37 37 37 37 36 36 36 37 37 38 38 38 38 38 38 39 39 39 38
72 72 72 70 66 64 62 57 55 58 62 67 72 72 67 66 69 68 67 63 55 54 53 47 48 50 55 65 65 61 59 59 62 62 57 51 49 48 46 43 42 40 38 36 34 33 35 36 35 33 32 32 33 33 33 32 32 32 32 32 31 31 31 31 31 31 32 32 33 33 33 33 34 34 34 35 36 37 36 36 37 37 37 37 36 35
71 72 73 72 67 62 60 60 62 61 60 61 66 70 65 62 67 70 71 70 67 66 63 54 50 49 49 56 59 57 58 59 59 61 61 56 51 51 51 48 47 46 44 41 39 39 39 38 37 36 35 34 34 34 34 34 34 34 33 33 33 32 32 31 31 31 31 31 31 32 33 33 34 35 35 36 36 36 35 35 35 34 34 34 33 33
69 71 72 73 70 65 60 59 61 60 59 61 63 66 64 59 60 63 66 69 69 71 72 67 62 50 40 44 50 52 55 58 58 59 60 59 54 51 53 54 55 55 54 52 50 49 48 45 42 40 38 37 36 36 36 36 36 35 35 34 34 34 33 33 32 32 32 33 33 33 33 34 34 35 35 35 35 34 34 34 33 32 33 33 32 33
69 70 71 73 74 72 66 60 57 53 52 54 55 57 59 57 53 51 55 60 61 64 68 72 72 55 37 36 42 45 50 53 53 56 59 59 57 52 50 54 58 59 59 59 57 52 50 48 47 44 41 39 37 37 37 37 36 36 36 35 35 35 35 34 34 34 34 34 34 34 34 34 34 34 34 34 34 33 33 33 33 33 34 34 34 35
66 68 69 72 74 74 71 66 63 60 57 54 53 53 53 55 53 50 53 55 54 56 57 62 72 61 42 38 41 40 46 50 50 53 55 57 58 53 49 51 55 60 60 60 58 53 49 48 49 48 45 41 39 37 37 37 36 36 36 36 36 36 36 36 36 36 36 35 35 35 35 35 34 35 35 35 35 34 34 34 34 35 36 36 37 37
64 66 67 69 70 72 72 68 64 63 64 64 63 60 58 58 57 56 58 58 56 57 55 55 65 61 47 44 47 42 43 48 50 51 52 54 55 52 48 46 48 54 57 57 57 55 52 51 50 50 49 46 44 41 39 37 37 36 36 36 36 37 37 37 37 37 36 36 36 36 36 36 36 36 36 36 36 36 36 36 37 38 38 38 40 40
64 67 67 68 70 72 73 73 69 65 65 67 66 64 63 62 60 59 59 59 58 59 58 56 61 61 53 49 50 47 44 43 46 48 47 48 48 45 41 39 38 41 45 47 49 50 51 51 52 52 50 50 49 46 43 40 39 38 38 37 38 38 38 38 38 37 37 37 37 37 37 37 37 38 38 39 39 39 38 39 39 39 40 41 42 43
58 61 64 66 71 74 76 77 75 70 68 69 69 68 67 65 64 64 63 64 64 59 56 58 58 57 57 55 52 52 49 44 45 46 45 44 42 38 35 35 35 35 36 38 40 42 44 46 48 49 48 47 47 46 44 42 40 40 40 40 40 40 40 40 39 39 38 38 38 38 39 39 39 40 40 40 40 40 40 41 41 42 43 44 45 46
55 58 60 63 67 73 76 75 73 73 73 73 73 72 71 68 66 66 66 68 68 63 62 61 54 47 48 50 52 55 53 47 46 47 45 44 43 40 37 36 36 36 37 38 38 38 39 41 42 44 45 45 44 44 44 43 42 41 40 41 42 42 42 42 41 41 41 41 41 41 41 41 41 41 42 42 42 42 42 43 44 45 46 47 47 48
55 57 59 61 65 70 74 74 74 75 76 76 75 74 73 72 70 70 72 69 65 65 68 64 56 50 42 38 44 54 55 51 48 49 49 48 47 45 43 41 39 38 39 40 40 39 39 39 40 41 42 43 43 43 44 44 44 43 42 42 42 43 43 44 44 43 43 43 43 43 43 43 43 43 43 43 44 44 45 46 47 48 49 49 49 50
55 58 57 59 64 67 70 72 73 75 78 78 79 78 76 75 73 73 74 71 66 67 67 60 57 58 49 38 39 47 53 54 52 51 52 52 51 49 48 47 42 39 40 40 41 41 40 41 42 43 43 43 43 43 44 45 45 45 45 45 44 44 44 44 44 44 44 44 44 44 44 44 44 44 45 46 46 47 48 49 49 50 51 51 52 52
57 59 57 57 61 64 66 68 69 72 75 77 79 80 78 78 76 73 73 73 72 72 68 61 58 59 55 47 43 43 48 53 54 54 53 53 54 52 52 51 46 44 43 41 40 41 42 42 44 45 46 45 45 45 45 45 46 46 47 48 48 48 47 46 45 45 45 45 45 45 45 45 46 47 48 48 49 50 50 51 52 52 53 53 53 52
59 60 59 59 63 65 64 65 66 69 72 75 77 79 78 77 77 75 73 72 73 74 72 66 63 61 53 47 47 51 53 52 52 55 55 55 55 56 55 53 49 48 46 42 39 41 43 44 44 45 46 47 47 48 48 47 47 47 49 50 51 51 50 49 48 47 47 47 47 47 47 48 48 49 50 51 51 52 52 53 53 54 54 54 53 52
60 61 60 62 67 68 65 64 66 67 70 74 76 76 76 77 77 78 77 75 73 73 72 70 70 65 50 42 48 54 54 54 54 55 56 57 55 54 54 53 50 49 48 44 43 44 45 44 45 45 46 47 48 49 49 50 49 49 50 51 51 52 52 52 51 51 51 50 50 50 50 51 51 51 52 53 54 55 55 55 55 55 55 54 53 52
61 61 61 63 66 66 62 63 65 66 71 76 77 75 75 76 77 79 80 80 78 75 73 72 70 63 55 54 57 55 51 54 57 56 55 56 54 52 52 54 54 52 50 49 49 48 47 47 47 47 48 49 49 49 51 52 52 52 53 52 51 51 53 54 54 54 54 54 54 54 53 53 54 54 55 56 57 57 57 57 57 57 56 54 52 51
59 59 59 60 63 63 60 59 61 65 72 75 74 73 74 75 77 79 79 79 77 75 74 72 67 61 57 58 59 56 52 54 57 57 55 54 54 53 53 54 56 54 52 52 52 50 48 48 48 48 48 48 48 50 52 53 53 54 55 54 52 52 53 55 56 56 56 56 56 56 56 56 56 57 58 59 59 60 59 59 58 58 56 54 52 51
55 54 54 55 58 59 57 58 63 68 71 70 69 70 70 69 69 73 76 76 75 73 73 72 70 66 61 56 54 55 54 53 54 56 57 55 54 54 54 54 55 55 53 52 51 49 46 46 47 47 46 46 48 51 52 53 53 55 55 54 53 53 53 55 57 57 58 58 58 58 58 58 59 60 61 61 61 61 60 60 59 58 56 54 53 51
50 49 50 51 54 55 55 59 64 67 66 66 68 69 68 66 64 67 73 75 75 75 75 74 72 68 65 61 57 55 56 58 59 59 58 56 53 53 55 56 56 56 55 53 52 50 47 45 44 44 45 47 50 52 52 52 53 55 54 54 53 53 53 54 57 59 60 60 60 60 61 61 61 62 63 63 63 62 61 60 59 57 55 54 53 51
48 47 48 50 53 55 57 60 62 61 61 61 63 65 67 66 66 68 71 71 70 71 73 74 72 67 65 64 61 61 65 69 70 64 56 55 56 57 58 59 58 58 56 54 53 52 50 47 44 44 47 49 50 51 51 52 54 55 54 53 53 54 55 55 56 59 61 62 62 62 62 63 64 64 65 65 64 63 61 60 58 56 55 53 52 50
46 46 47 49 52 53 56 59 60 62 61 57 55 57 59 60 61 64 69 71 68 67 67 68 67 65 64 63 63 67 72 75 74 67 56 56 61 64 63 62 61 60 57 54 54 54 53 50 46 46 49 50 50 50 51 53 55 55 55 54 54 55 57 57 58 59 60 62 63 63 64 65 66 66 66 66 65 63 61 59 58 56 55 53 52 50
49 48 48 49 51 51 54 58 59 61 59 52 48 49 51 53 56 59 66 69 66 64 65 64 63 62 60 59 60 65 69 73 73 67 59 60 65 66 66 66 63 63 61 58 58 59 57 55 54 52 52 51 50 50 51 54 55 55 54 54 55 56 57 58 60 60 60 62 63 64 65 66 67 67 67 67 65 64 61 59 58 56 54 53 52 51
47 50 51 53 52 50 52 55 56 56 53 48 47 48 48 50 52 57 64 61 54 56 62 62 61 59 54 53 56 61 66 70 69 64 63 67 68 67 67 68 65 64 63 61 61 62 60 60 60 59 56 54 53 52 53 55 56 56 55 55 56 58 58 60 62 62 61 61 62 64 65 65 66 67 67 67 65 64 62 60 58 55 54 53 53 53
39 42 47 51 52 52 52 53 54 52 48 46 47 48 49 52 54 56 58 52 47 53 60 60 61 61 58 58 59 60 64 67 65 63 65 69 69 67 67 67 66 64 64 63 63 63 63 62 62 62 62 60 57 56 56 57 58 58 58 59 60 60 60 62 64 63 62 62 61 61 61 63 64 65 66 66 65 63 61 59 57 55 54 54 54 53
42 40 40 41 44 48 51 53 55 52 45 43 46 47 49 54 57 55 52 48 47 52 58 61 63 63 64 66 63 60 63 66 65 64 64 66 68 67 66 66 66 65 64 64 65 65 65 63 62 62 62 61 60 59 58 60 62 63 63 65 64 62 62 64 65 65 64 61 59 58 59 60 62 63 64 64 63 62 61 59 56 55 54 54 54 54
49 47 45 41 40 40 42 46 51 50 44 43 47 49 49 53 55 52 51 51 50 49 54 61 64 63 65 69 67 60 58 59 61 61 62 63 66 66 65 65 66 65 63 63 64 66 67 66 64 63 61 60 61 61 60 61 62 62 63 64 63 61 62 64 64 65 63 61 58 57 58 59 61 61 62 63 62 61 60 57 55 54 54 55 54 55
52 50 49 46 44 42 40 38 38 39 40 44 48 48 48 50 51 51 52 54 53 52 52 56 60 61 63 68 71 67 60 55 54 54 56 59 63 65 65 65 66 66 64 62 62 64 66 67 66 64 63 61 62 62 63 62 61 61 62 61 59 59 60 62 63 63 61 59 58 57 58 59 60 60 61 62 62 61 59 56 54 54 55 55 55 55
49 48 46 45 44 43 42 37 33 31 34 39 42 44 46 47 48 50 51 53 55 56 56 56 58 59 61 65 70 72 69 63 57 52 51 52 55 60 63 64 65 66 66 65 63 63 64 65 66 65 65 64 63 63 63 63 63 63 63 61 60 59 59 60 60 59 57 56 55 55 56 57 59 60 61 62 61 60 57 56 55 55 55 56 56 56
44 44 43 42 41 41 40 38 34 31 30 32 34 37 41 45 47 48 49 49 51 54 56 57 58 58 59 63 67 71 73 70 62 55 51 49 49 51 56 59 61 62 64 65 65 65 65 65 65 66 66 67 66 66 65 64 64 64 63 62 62 61 59 58 57 55 54 53 53 53 54 56 58 60 61 62 61 60 58 56 56 56 56 56 56 56
42 41 39 38 38 38 37 34 31 30 31 32 33 34 37 41 45 48 49 49 50 52 54 57 58 57 58 61 64 68 72 72 67 61 57 52 49 48 50 53 55 57 60 63 65 67 66 65 65 66 67 68 69 69 67 65 64 64 65 65 63 60 57 55 54 52 52 53 52 52 54 56 59 60 61 61 60 59 58 57 57 57 56 56 56 57
40 39 39 37 36 36 35 32 31 31 32 31 32 33 35 38 42 46 49 50 51 51 53 55 57 59 60 62 63 65 68 69 70 68 63 57 53 50 49 50 52 55 58 61 65 67 66 64 64 65 66 68 69 69 67 65 65 66 65 64 62 59 56 54 53 53 53 53 52 52 54 57 59 60 60 59 59 58 57 57 57 57 56 56 57 58
39 38 38 38 36 35 33 31 30 30 30 29 30 33 35 38 40 42 45 47 48 50 51 53 54 56 58 60 61 63 65 67 68 68 66 62 58 55 52 51 52 54 57 60 62 64 65 64 63 63 64 66 67 67 67 65 65 65 65 63 61 58 56 55 55 54 53 52 52 52 54 56 58 59 59 58 58 57 57 57 56 56 57 57 58 58
40 38 37 38 37 34 31 30 30 31 31 30 31 32 34 36 37 38 39 42 44 47 50 52 53 54 57 59 59 60 62 64 65 67 67 64 61 59 57 55 53 54 56 60 62 62 63 64 64 64 64 64 65 65 65 64 63 63 63 63 61 59 58 58 57 56 55 53 52 51 53 56 58 58 57 57 57 57 57 56 56 56 57 57 58 58
41 39 38 38 37 33 31 32 35 36 34 32 32 34 35 36 36 37 38 40 42 44 47 51 52 53 55 58 59 60 60 61 62 64 66 65 64 62 61 59 57 55 55 59 62 63 63 63 64 65 64 64 64 63 62 62 62 63 63 62 61 61 61 61 60 59 58 56 54 53 54 57 58 58 57 57 57 57 56 57 57 57 57 57 58 57
Wind_Direction
228 231 231 232 233 234 234 235 236 237 239 241 241 242 243 243 242 241 239 236 237 241 244 245 248 247 238 235 239 242 245 246 245 243 242 244 247 248 248 248 249 252 254 255 257 259 261 260 256 253 255 259 263 264 262 261 261 261 264 268 269 269 268 266 264 262 262 262 262 263 262 261 262 265 265 264 263 263 264 266 268 268 268 269 269 269
226 230 231 232 234 233 233 234 235 236 238 241 242 243 244 244 244 243 240 238 238 241 244 244 247 248 241 236 241 244 246 247 246 246 243 242 244 245 249 251 250 250 253 259 261 259 259 260 258 256 255 257 261 263 263 262 261 261 262 264 264 265 263 260 261 262 263 263 263 263 262 264 266 267 266 264 263 264 265 264 263 262 263 265 267 269
222 229 230 230 232 232 231 231 233 234 236 238 239 240 242 243 244 244 242 241 240 241 243 243 245 247 243 236 238 244 248 248 247 246 244 242 242 244 248 252 252 253 253 257 259 258 256 257 257 257 255 256 257 260 263 263 262 262 261 260 261 261 260 259 260 262 263 265 266 266 265 266 268 268 267 266 267 267 265 263 261 261 263 266 270 274
218 226 231 231 231 231 231 230 230 232 234 236 237 238 239 241 243 245 244 242 240 241 242 242 244 245 243 237 235 240 245 247 247 247 245 243 244 245 247 250 253 257 255 254 255 256 255 254 255 257 256 255 255 257 261 263 263 262 260 260 260 261 262 262 264 264 265 267 268 268 267 267 267 267 266 266 267 265 263 263 265 268 271 274 276 277
213 220 227 228 230 230 230 230 229 230 233 235 237 237 239 240 243 246 246 245 242 241 242 243 244 243 242 240 236 236 242 245 247 249 248 246 246 246 247 250 254 256 254 252 253 254 254 254 254 254 256 256 256 257 258 260 262 262 262 262 262 263 264 265 266 266 266 267 269 269 269 269 267 266 266 266 265 264 265 269 272 275 277 278 276 275
208 213 219 222 224 227 229 230 229 229 231 233 236 237 239 240 243 246 248 248 246 243 242 244 245 243 241 241 239 236 241 245 246 249 251 250 249 249 249 251 254 254 252 251 251 253 254 254 253 252 254 256 256 256 255 255 257 261 264 265 266 267 267 267 267 267 269 269 270 270 270 269 267 267 267 266 264 266 269 272 274 276 276 276 276 276
206 209 215 218 220 222 226 229 229 230 230 232 233 235 237 239 241 244 247 248 248 246 243 243 246 245 241 240 241 238 239 244 246 249 251 253 253 252 251 251 253 255 254 253 251 251 253 254 254 253 253 255 255 255 255 254 256 260 264 266 269 270 271 271 270 269 270 271 271 271 269 267 268 268 266 264 265 267 268 270 272 273 274 275 277 278
205 208 212 217 220 221 223 226 230 231 232 232 232 233 235 237 238 241 243 245 247 248 246 243 246 248 243 239 240 240 239 242 246 249 250 252 254 254 252 250 251 253 255 255 253 252 253 254 256 256 255 255 254 254 256 257 258 260 263 266 269 271 274 275 274 272 270 270 270 270 269 268 269 267 265 265 265 266 268 269 271 271 273 275 276 279
209 209 208 214 220 223 222 224 229 232 233 233 231 232 234 236 238 240 243 244 245 247 247 245 246 248 244 238 239 240 239 240 245 249 251 252 252 253 252 251 250 251 253 254 255 254 254 255 256 258 257 257 256 256 257 258 259 259 261 264 268 272 274 275 274 273 271 269 268 268 270 270 269 266 265 266 267 268 269 270 271 272 274 275 276 278
220 215 211 213 216 221 222 223 229 233 234 234 233 233 234 236 238 241 244 245 246 245 244 244 246 248 244 238 238 239 238 240 243 247 250 251 252 252 251 250 249 249 251 253 255 256 258 259 260 260 259 258 258 257 257 257 258 259 260 261 264 267 270 270 270 270 269 268 267 267 269 268 268 267 267 267 269 271 272 271 272 273 274 275 277 278
227 223 220 216 211 216 221 222 227 231 233 234 233 233 235 239 240 242 244 244 245 244 241 242 245 250 246 237 237 240 237 238 242 245 248 250 252 252 251 250 249 250 252 255 257 259 261 262 262 261 260 259 258 258 257 256 257 258 259 260 260 261 263 264 265 266 266 267 267 267 266 266 267 268 269 269 270 271 271 271 272 273 274 275 276 277
232 231 229 222 215 217 220 220 223 227 228 228 230 231 234 238 240 243 245 244 246 244 240 241 244 248 247 237 235 240 239 238 241 243 246 249 251 252 252 251 251 251 254 256 259 260 261 261 261 262 261 259 258 258 257 256 255 256 257 258 259 259 260 261 261 261 262 264 266 267 266 265 266 268 269 269 269 269 270 271 271 271 272 272 272 273
236 236 234 230 227 225 224 225 225 225 225 223 223 226 230 234 237 240 243 245 249 247 241 240 243 246 246 240 236 239 241 239 241 244 247 248 249 250 252 252 251 251 252 254 256 258 258 259 260 260 261 260 260 260 258 256 254 255 256 256 257 258 259 260 260 260 261 263 266 267 267 265 265 267 269 269 267 267 266 266 267 268 268 268 269 271
237 238 236 236 235 232 229 229 228 228 226 222 220 224 227 230 235 238 241 246 252 250 244 242 245 246 245 242 239 240 243 242 240 244 247 246 246 248 250 251 251 250 251 253 255 256 256 258 259 260 260 261 261 263 262 259 257 256 256 257 257 258 259 260 260 260 261 263 265 267 267 265 263 264 266 266 265 264 264 263 264 264 265 266 268 270
238 241 239 238 238 238 235 233 233 234 232 230 232 236 235 236 243 245 246 251 255 255 249 245 247 248 244 241 241 241 244 245 242 241 244 244 244 246 248 250 251 250 250 252 255 256 256 256 258 259 260 259 260 262 262 261 260 259 258 257 257 257 258 260 260 260 260 262 263 264 264 263 262 262 263 264 264 264 263 263 262 262 263 264 267 270
236 241 241 240 241 243 242 239 239 239 238 238 240 242 240 241 248 250 249 253 256 254 248 246 248 249 245 241 241 241 242 244 244 241 240 240 240 243 245 245 247 250 250 251 253 256 257 256 256 257 258 258 258 259 260 260 259 258 257 257 257 257 258 260 260 261 261 260 261 261 262 261 260 261 263 263 263 263 262 262 262 263 264 265 267 269
235 239 241 242 243 243 245 245 244 243 242 242 244 244 243 244 248 250 248 252 255 252 247 246 249 250 246 242 240 241 242 243 246 247 243 240 237 239 242 242 243 247 250 252 253 255 257 256 256 256 257 257 255 256 257 258 258 257 257 257 257 257 258 259 260 260 260 259 259 260 261 261 261 262 263 263 263 263 263 263 264 265 266 267 268 269
235 237 239 243 245 244 246 248 247 246 244 244 245 245 245 246 247 248 249 252 256 255 252 249 249 249 247 242 239 240 243 244 248 252 250 244 240 239 240 239 241 245 247 250 253 257 259 259 258 257 255 253 252 253 255 257 258 257 258 257 257 257 257 258 258 258 259 258 258 259 260 262 263 263 264 264 264 264 265 266 267 267 268 269 270 272
235 237 238 241 245 245 246 248 247 246 246 246 246 246 248 249 249 248 249 251 253 256 256 252 249 248 246 242 239 239 241 243 248 252 252 249 244 240 239 237 238 242 244 246 250 256 260 262 262 260 256 252 251 252 254 256 258 258 258 258 257 257 257 257 257 257 257 257 257 257 258 260 261 263 264 264 265 266 267 268 269 270 270 271 271 272
236 238 238 239 243 244 244 246 246 246 246 246 246 247 250 252 253 253 253 253 253 256 258 255 252 249 245 244 243 240 239 240 244 249 252 254 249 244 242 241 241 242 245 247 250 255 260 262 262 262 260 256 254 254 255 256 258 259 258 258 258 257 256 256 256 256 256 256 256 257 258 259 261 262 264 264 265 267 269 270 270 270 270 269 269 269
236 238 238 238 241 243 242 244 248 249 248 247 247 248 251 253 254 254 255 255 255 256 257 256 254 249 242 245 246 242 241 241 243 246 251 255 255 250 246 245 245 246 248 251 255 259 261 261 261 262 260 259 257 257 256 257 258 258 258 258 257 256 256 255 255 255 256 256 256 257 258 259 260 261 263 264 266 267 268 268 268 267 266 266 266 267
236 238 238 238 241 243 243 243 245 247 246 246 247 248 250 251 253 253 254 256 256 256 256 258 258 250 239 249 253 246 245 246 246 248 250 254 259 259 254 249 248 250 251 254 257 261 261 259 257 259 259 259 259 259 258 258 258 258 258 257 256 255 255 255 254 255 255 256 257 258 258 258 258 260 262 264 264 265 265 265 265 264 264 265 265 266
239 240 239 239 240 242 244 243 241 241 243 243 242 242 242 243 246 248 252 254 255 257 257 259 259 251 239 250 259 253 249 249 249 251 250 253 259 264 264 258 254 253 254 256 258 260 260 258 255 255 256 258 261 262 262 260 259 258 257 257 257 256 256 255 255 255 255 256 256 256 257 257 259 260 261 262 262 262 262 262 263 264 264 265 265 266
241 242 242 241 241 241 243 244 242 241 243 244 242 241 239 241 243 245 249 252 253 254 253 255 258 252 240 245 255 255 252 249 249 252 252 253 258 263 266 265 261 258 257 258 258 258 258 258 257 256 256 258 261 263 264 263 260 258 257 256 256 256 256 256 255 255 256 256 256 255 256 257 258 258 259 259 260 260 261 262 263 264 265 265 265 267
242 244 244 243 243 242 242 242 242 240 241 244 245 245 244 245 246 246 248 251 252 253 252 251 254 253 248 248 252 253 255 253 250 253 253 253 255 259 262 261 259 259 259 258 258 258 258 257 257 258 258 259 260 262 263 263 261 258 256 255 255 255 256 256 256 256 256 256 256 256 257 257 257 257 257 258 259 259 261 263 264 265 265 265 265 266
239 241 243 243 243 243 242 242 243 244 246 247 247 247 248 247 248 249 249 251 252 253 253 253 254 255 252 251 250 249 251 252 250 252 253 252 252 253 254 254 254 256 257 256 255 255 256 256 256 257 258 259 260 261 261 261 260 258 256 254 254 254 255 256 256 256 256 256 256 256 257 257 257 258 258 259 259 261 263 264 265 265 265 265 265 267
235 237 238 241 243 244 244 244 245 248 250 250 249 249 249 248 249 250 250 250 251 252 253 254 257 256 250 248 249 247 247 247 248 249 252 253 252 252 252 253 255 256 257 256 254 253 253 254 255 256 257 258 258 258 257 257 256 255 255 254 253 254 254 255 255 256 256 256 257 257 258 258 258 259 260 260 261 263 264 265 266 266 265 265 266 267
234 236 237 239 242 244 244 244 244 245 247 249 249 249 249 250 250 249 250 251 252 253 253 254 256 257 250 242 243 244 245 247 249 250 252 253 254 254 254 254 254 257 259 258 256 255 254 253 254 255 255 256 256 255 254 253 253 253 254 254 254 254 254 254 254 254 254 255 256 257 258 258 259 260 261 262 263 264 265 266 266 266 266 266 267 268
237 239 239 241 244 245 245 244 244 244 245 246 247 248 248 249 249 249 249 251 252 253 254 254 255 255 249 237 233 240 245 248 250 252 253 252 253 254 256 255 255 258 262 262 259 257 255 253 252 252 253 253 255 255 255 253 253 253 253 254 254 254 254 253 253 253 253 253 254 255 256 257 258 259 260 261 262 263 264 265 266 267 267 267 267 269
240 242 242 243 246 246 245 245 245 246 246 246 247 247 248 248 248 248 248 248 249 252 254 254 253 252 247 238 233 238 245 247 248 251 252 253 254 257 258 257 255 257 261 262 260 257 255 253 252 251 252 253 254 255 254 254 253 253 253 254 254 254 254 254 254 253 253 253 254 255 256 257 258 259 260 261 262 264 265 266 267 267 268 268 269 270
244 245 244 245 247 246 244 245 246 247 248 248 247 247 247 247 248 249 248 247 247 249 251 251 250 250 248 243 238 239 244 247 248 250 252 255 258 261 262 260 256 255 256 256 254 253 253 252 251 252 252 252 251 252 252 253 253 253 254 254 254 254 254 255 255 255 255 255 256 257 257 258 259 260 262 263 264 266 267 268 268 269 269 269 270 271
248 248 247 246 248 247 244 245 247 249 250 250 248 247 246 247 248 249 251 251 250 250 250 250 250 250 249 247 245 243 243 245 248 249 251 255 258 260 262 262 259 256 256 254 250 249 250 251 250 251 251 250 249 249 250 250 251 252 253 253 254 254 254 254 254 255 256 256 257 258 258 259 260 261 263 264 265 266 267 268 269 269 269 269 270 272
249 249 249 247 248 247 246 246 248 248 248 248 247 247 248 248 249 251 252 253 253 252 250 250 252 252 249 248 249 248 244 243 246 247 249 252 254 256 257 260 261 260 258 255 252 249 248 250 250 249 249 249 249 249 249 249 249 250 251 252 253 253 253 253 254 254 255 255 256 256 257 258 259 260 261 262 263 264 266 267 268 269 269 270 271 273
244 246 248 247 246 246 244 244 246 245 245 246 248 249 250 251 250 251 252 253 253 252 250 250 250 249 247 247 249 248 244 244 246 246 247 249 250 252 254 255 257 258 257 255 253 249 247 248 249 249 250 251 251 250 249 249 249 249 250 252 252 252 252 253 253 254 254 255 255 255 256 256 257 258 259 260 261 263 265 266 267 268 269 270 271 273
240 242 244 244 245 245 242 241 243 243 245 248 250 250 251 252 251 250 250 250 250 250 248 248 249 248 247 248 248 245 241 243 247 247 245 245 245 247 250 252 254 255 255 253 250 248 246 246 247 250 250 250 250 249 249 250 251 251 252 253 253 253 252 252 253 254 254 255 255 255 255 256 256 257 258 259 261 262 264 266 266 267 269 270 271 273
237 239 240 241 243 244 241 239 242 245 248 250 250 249 250 251 250 250 251 251 251 253 253 251 250 249 247 245 244 243 242 245 250 250 246 245 245 246 248 251 253 253 253 252 250 247 245 244 245 245 245 244 245 246 248 249 251 252 253 254 255 255 254 252 252 253 253 254 255 255 256 256 256 257 258 260 261 263 264 265 266 267 269 270 271 271
234 236 239 241 242 243 242 242 244 247 248 247 247 248 250 252 253 253 255 254 254 255 255 252 249 246 244 243 242 243 247 251 252 251 247 245 246 247 247 249 250 251 252 253 252 248 245 243 242 239 239 241 243 245 247 248 250 252 254 256 256 257 256 255 253 252 252 253 254 255 255 256 257 258 259 260 262 263 265 265 266 267 268 269 269 268
233 237 242 246 247 244 243 244 244 246 246 246 248 250 251 252 253 254 255 253 250 250 252 252 250 247 246 245 242 244 250 254 253 250 247 246 247 248 248 247 247 248 250 250 251 249 244 241 239 236 236 239 242 245 247 248 250 251 253 255 256 257 258 258 256 252 251 252 253 253 254 255 257 258 259 261 262 263 264 265 265 266 266 267 266 265
235 238 240 243 245 245 244 244 245 247 249 249 249 249 249 249 249 250 253 253 250 250 252 253 252 249 246 245 244 246 251 252 250 247 245 245 248 248 247 246 245 246 247 247 248 248 245 241 238 237 237 240 243 245 246 247 249 251 253 254 255 256 258 259 256 253 251 251 252 252 253 254 256 258 259 261 262 263 263 263 264 265 265 265 264 263
236 238 238 239 240 241 243 246 247 249 251 250 248 246 246 248 248 248 251 252 250 251 252 252 251 248 244 242 242 244 247 248 246 244 243 244 246 247 246 245 245 246 247 247 248 249 248 245 242 241 241 242 242 242 243 245 247 251 254 255 256 258 259 257 254 252 251 251 251 252 253 254 255 257 258 260 261 261 262 263 264 264 264 263 263 262
238 238 239 240 240 240 242 246 249 250 250 250 249 247 248 249 248 247 249 251 249 248 248 248 248 246 241 239 239 241 244 246 245 243 242 243 245 246 245 243 244 246 248 249 249 249 249 248 248 247 247 248 247 245 244 246 251 255 257 258 260 261 258 254 252 251 251 251 251 252 253 254 255 256 257 258 259 260 261 261 262 262 262 262 262 262
246 246 245 243 242 242 243 245 248 249 248 248 250 250 249 250 251 250 251 252 251 248 244 243 245 245 241 239 238 238 241 243 244 244 243 243 244 246 244 242 243 245 248 249 249 249 249 249 250 251 252 253 253 251 249 251 255 258 259 260 262 260 254 251 251 252 251 252 252 253 254 254 255 256 257 257 258 259 260 260 261 260 260 260 261 261
250 253 254 252 249 248 247 245 246 248 248 250 252 250 248 249 252 252 252 252 252 250 246 243 245 246 244 241 238 236 237 239 240 241 242 241 242 242 242 242 244 246 248 250 251 250 249 249 249 250 251 252 254 254 253 254 256 257 257 258 259 257 252 251 252 252 253 254 254 253 254 254 255 256 257 258 259 259 260 261 260 259 259 260 260 260
253 255 258 258 256 256 254 251 249 250 248 247 249 249 248 249 251 251 250 250 250 249 248 246 246 248 248 246 243 241 241 240 240 241 241 240 240 239 239 241 244 247 249 251 253 253 251 250 249 249 249 249 252 254 255 256 257 257 257 257 257 255 254 254 254 254 257 258 258 257 256 256 257 257 258 259 260 260 261 261 260 259 260 260 260 260
255 256 257 258 258 260 260 259 258 258 253 248 247 247 246 248 249 249 249 249 249 249 250 250 250 251 252 250 247 245 245 246 246 245 244 243 241 240 240 241 245 248 251 253 254 255 254 252 250 249 248 248 250 252 254 256 257 259 259 259 258 258 258 258 258 259 260 261 261 261 260 259 259 259 259 259 260 261 261 261 260 260 260 261 261 261
253 254 256 257 259 261 262 262 262 262 257 251 249 249 247 247 248 249 250 250 251 251 252 251 252 254 255 254 252 250 249 249 248 248 248 247 245 245 244 243 245 249 252 254 256 256 255 253 251 250 249 248 249 250 252 254 255 257 259 259 259 260 260 261 263 263 263 262 262 262 261 260 260 259 259 260 260 261 261 260 260 260 261 261 262 263
252 253 255 256 258 260 261 262 262 259 254 253 253 252 251 249 249 251 253 254 256 257 257 256 256 256 257 258 257 255 253 252 250 251 252 251 249 249 248 245 246 249 252 254 256 257 256 254 251 250 249 248 248 249 251 253 254 255 256 258 259 261 262 264 264 264 262 261 261 260 260 259 259 259 260 260 261 261 261 261 261 261 261 262 263 263
248 250 252 253 255 257 258 258 258 258 257 256 253 250 249 249 249 252 254 256 257 259 261 261 260 259 259 260 261 260 258 256 254 254 255 254 253 252 251 248 247 249 252 254 256 257 256 255 253 251 250 248 248 248 251 253 255 256 257 259 261 263 264 264 264 262 261 260 260 259 258 258 259 260 260 261 261 261 261 261 261 262 262 262 263 263
243 246 250 252 254 256 257 256 255 255 254 253 252 250 250 251 252 253 254 255 256 257 258 260 262 262 261 262 263 263 262 261 258 257 257 257 256 256 254 251 249 249 251 254 256 257 256 254 253 251 250 249 248 249 252 255 257 258 260 261 262 262 263 264 264 263 262 261 261 260 260 259 259 260 260 261 261 261 261 261 261 261 262 262 263 264
245 247 248 250 252 253 253 252 251 250 249 252 256 256 254 253 254 255 256 257 256 256 256 257 258 260 262 263 264 264 264 263 263 261 259 258 259 258 257 255 252 250 251 253 255 256 256 255 254 251 248 247 247 249 252 255 257 258 259 260 260 261 262 263 264 264 264 263 263 263 261 260 260 260 261 261 262 261 261 262 261 261 261 262 263 264
248 248 248 248 250 250 248 249 251 252 251 252 257 259 258 258 258 258 259 260 259 258 258 258 258 258 258 260 262 263 263 264 264 263 261 260 260 259 259 258 256 255 256 256 255 255 255 256 255 253 251 249 248 249 251 253 255 256 257 258 258 259 261 263 264 265 263 263 264 263 261 259 260 261 262 262 261 261 261 261 261 261 261 262 263 264
Height
5752 5753 5756 5764 5772 5778 5782 5785 5787 5788 5790 5790 5792 5796 5799 5803 5807 5810 5812 5814 5815 5815 5816 5819 5818 5823 5832 5833 5832 5831 5831 5832 5836 5840 5844 5847 5848 5850 5852 5854 5857 5858 5859 5858 5858 5859 5859 5861 5861 5861 5862 5861 5861 5861 5862 5862 5863 5862 5862 5862 5861 5861 5862 5862 5861 5861 5861 5861 5860 5861 5861 5861 5861 5861 5862 5862 5862 5862 5862 5862 5863 5863 5862 5862 5862 5862
5747 5747 5754 5764 5770 5774 5778 5779 5780 5782 5783 5785 5789 5793 5795 5798 5803 5806 5808 5809 5811 5812 5813 5815 5815 5819 5827 5831 5830 5829 5828 5829 5833 5837 5841 5843 5844 5846 5849 5851 5853 5855 5856 5856 5856 5857 5857 5858 5858 5859 5859 5860 5860 5859 5859 5859 5860 5860 5861 5860 5859 5859 5860 5860 5859 5859 5859 5859 5859 5859 5859 5859 5859 5860 5860 5860 5860 5860 5860 5860 5860 5860 5860 5860 5859 5859
5741 5743 5752 5761 5764 5767 5770 5770 5773 5775 5777 5779 5783 5787 5789 5793 5797 5800 5803 5805 5806 5807 5808 5810 5811 5814 5821 5826 5827 5825 5825 5827 5830 5833 5836 5838 5839 5842 5845 5847 5849 5852 5854 5854 5854 5854 5854 5855 5855 5856 5857 5857 5857 5857 5856 5856 5857 5857 5858 5858 5857 5857 5858 5857 5857 5857 5857 5857 5857 5858 5858 5858 5858 5858 5858 5858 5858 5858 5857 5857 5857 5857 5857 5857 5858 5857
5737 5741 5748 5755 5758 5760 5761 5763 5767 5769 5771 5773 5778 5782 5785 5790 5792 5795 5798 5799 5800 5802 5803 5805 5806 5809 5815 5820 5823 5823 5822 5824 5827 5830 5832 5834 5836 5839 5841 5843 5846 5849 5851 5851 5851 5851 5851 5852 5853 5853 5854 5854 5854 5855 5855 5854 5854 5854 5854 5855 5855 5855 5856 5856 5856 5855 5855 5855 5855 5856 5856 5856 5856 5856 5856 5856 5856 5855 5854 5853 5853 5854 5855 5855 5856 5856
5735 5739 5743 5749 5753 5753 5754 5757 5761 5764 5767 5770 5774 5779 5784 5788 5789 5791 5792 5793 5795 5796 5799 5800 5799 5803 5809 5814 5819 5822 5820 5821 5825 5826 5828 5832 5834 5835 5837 5839 5843 5845 5846 5847 5847 5847 5848 5849 5850 5851 5851 5851 5852 5853 5853 5852 5851 5851 5851 5852 5852 5853 5854 5854 5854 5854 5853 5853 5854 5854 5854 5855 5855 5854 5854 5854 5853 5852 5851 5851 5851 5852 5853 5853 5853 5853
5731 5734 5738 5743 5744 5746 5749 5753 5756 5760 5764 5767 5771 5778 5782 5784 5786 5786 5787 5787 5788 5791 5795 5795 5791 5796 5805 5809 5815 5820 5818 5819 5822 5823 5826 5829 5832 5833 5834 5837 5839 5841 5842 5843 5844 5844 5844 5845 5846 5847 5849 5849 5850 5851 5850 5849 5849 5849 5849 5849 5850 5851 5852 5852 5852 5852 5852 5852 5852 5852 5852 5852 5852 5852 5852 5852 5850 5850 5850 5850 5850 5850 5850 5850 5850 5850
5727 5730 5733 5736 5738 5742 5745 5748 5752 5756 5759 5762 5769 5774 5776 5779 5781 5780 5781 5780 5780 5784 5789 5789 5786 5790 5799 5806 5811 5816 5817 5817 5819 5821 5824 5827 5829 5831 5832 5834 5835 5836 5838 5839 5840 5840 5840 5841 5843 5844 5846 5846 5847 5848 5847 5847 5847 5848 5847 5847 5847 5848 5849 5850 5850 5850 5850 5850 5850 5850 5850 5849 5849 5850 5850 5849 5848 5848 5848 5848 5848 5848 5848 5847 5847 5847
5727 5727 5728 5731 5734 5737 5740 5745 5750 5754 5755 5759 5766 5768 5770 5773 5773 5772 5773 5772 5774 5778 5781 5784 5785 5785 5792 5803 5808 5811 5814 5816 5816 5818 5821 5824 5826 5828 5829 5831 5832 5833 5834 5834 5835 5837 5837 5838 5840 5842 5843 5844 5844 5844 5844 5845 5846 5846 5846 5845 5845 5846 5847 5847 5847 5847 5848 5848 5848 5847 5847 5847 5847 5847 5846 5845 5845 5845 5846 5846 5846 5845 5845 5845 5844 5844
5723 5723 5726 5729 5730 5731 5737 5745 5748 5749 5751 5754 5760 5762 5765 5766 5765 5766 5767 5767 5770 5771 5772 5779 5783 5781 5785 5798 5805 5807 5811 5813 5815 5816 5818 5821 5823 5824 5825 5827 5829 5829 5830 5830 5831 5833 5834 5835 5836 5838 5839 5840 5841 5842 5842 5843 5843 5843 5843 5843 5844 5844 5844 5844 5844 5845 5845 5845 5845 5845 5845 5845 5845 5844 5843 5843 5842 5843 5843 5843 5843 5843 5842 5842 5842 5842
5712 5717 5721 5721 5723 5729 5738 5743 5744 5745 5746 5749 5754 5757 5759 5759 5759 5762 5761 5763 5765 5762 5766 5777 5780 5776 5779 5792 5798 5800 5806 5810 5812 5814 5815 5816 5818 5820 5822 5823 5824 5825 5826 5827 5828 5830 5831 5832 5833 5834 5835 5837 5838 5838 5838 5838 5839 5840 5841 5841 5841 5842 5842 5842 5841 5841 5842 5842 5842 5843 5843 5843 5842 5842 5841 5840 5840 5840 5841 5841 5840 5840 5840 5839 5839 5839
5707 5712 5713 5715 5722 5729 5735 5736 5737 5740 5742 5745 5749 5752 5754 5753 5755 5757 5755 5759 5756 5753 5764 5777 5778 5772 5772 5785 5792 5793 5801 5807 5808 5810 5811 5813 5815 5816 5817 5819 5820 5822 5823 5824 5826 5828 5829 5829 5830 5830 5831 5833 5833 5834 5834 5835 5835 5836 5836 5837 5838 5838 5838 5838 5838 5838 5838 5838 5839 5840 5840 5840 5840 5839 5838 5838 5838 5838 5838 5838 5838 5837 5837 5837 5837 5836
5702 5704 5708 5716 5723 5726 5729 5730 5732 5734 5737 5741 5744 5748 5750 5749 5751 5751 5750 5752 5746 5748 5767 5776 5773 5766 5762 5777 5790 5790 5797 5804 5804 5807 5808 5809 5811 5812 5813 5815 5817 5818 5820 5822 5823 5825 5826 5826 5826 5826 5827 5829 5829 5829 5830 5831 5831 5831 5832 5833 5833 5834 5834 5835 5835 5835 5835 5835 5835 5836 5837 5837 5837 5836 5835 5835 5835 5835 5835 5835 5834 5834 5834 5834 5834 5833
5696 5699 5706 5712 5715 5720 5724 5726 5728 5731 5734 5738 5740 5743 5744 5744 5746 5745 5744 5745 5741 5748 5768 5772 5765 5756 5754 5773 5789 5788 5793 5799 5802 5804 5805 5806 5807 5808 5810 5811 5813 5815 5816 5819 5820 5821 5822 5822 5823 5823 5823 5824 5825 5826 5826 5827 5827 5828 5828 5828 5829 5830 5830 5830 5831 5831 5831 5831 5832 5832 5832 5833 5833 5833 5833 5832 5832 5832 5831 5831 5831 5831 5831 5830 5830 5830
5690 5694 5699 5702 5708 5716 5720 5723 5727 5731 5734 5736 5738 5741 5741 5741 5741 5740 5741 5741 5740 5749 5763 5764 5755 5746 5751 5772 5786 5787 5788 5794 5800 5802 5801 5802 5803 5804 5806 5807 5809 5811 5812 5814 5816 5817 5818 5819 5819 5819 5820 5821 5821 5822 5822 5822 5823 5823 5824 5824 5825 5826 5826 5825 5826 5826 5826 5827 5828 5828 5828 5828 5828 5829 5829 5829 5829 5828 5828 5828 5827 5827 5827 5826 5826 5826
5685 5687 5692 5701 5708 5712 5717 5723 5726 5729 5731 5732 5735 5736 5735 5736 5736 5737 5739 5738 5740 5748 5754 5753 5744 5738 5753 5774 5783 5784 5783 5786 5794 5798 5796 5798 5800 5801 5803 5803 5805 5807 5808 5810 5811 5813 5814 5815 5815 5816 5816 5817 5817 5818 5818 5818 5819 5819 5820 5820 5820 5821 5821 5820 5821 5822 5822 5823 5823 5823 5823 5823 5823 5824 5824 5825 5825 5824 5824 5824 5823 5823 5823 5823 5822 5822
5683 5682 5691 5702 5705 5705 5710 5716 5717 5719 5722 5724 5727 5726 5727 5733 5734 5734 5735 5735 5738 5741 5743 5743 5736 5739 5757 5771 5776 5779 5778 5779 5785 5791 5792 5794 5797 5797 5798 5799 5800 5802 5803 5805 5806 5808 5809 5810 5811 5812 5813 5813 5814 5815 5815 5815 5815 5815 5816 5816 5816 5816 5816 5816 5816 5817 5818 5819 5818 5818 5818 5818 5818 5819 5820 5820 5821 5820 5820 5819 5819 5820 5819 5819 5819 5818
5681 5683 5691 5696 5696 5701 5706 5707 5707 5712 5717 5719 5719 5720 5727 5733 5730 5730 5731 5731 5733 5732 5733 5737 5735 5742 5754 5762 5769 5775 5774 5776 5780 5785 5789 5790 5792 5793 5794 5796 5797 5797 5799 5800 5802 5804 5804 5806 5807 5807 5809 5810 5810 5811 5811 5812 5811 5812 5812 5812 5812 5813 5812 5812 5812 5813 5813 5814 5814 5814 5814 5814 5814 5815 5815 5816 5816 5816 5815 5815 5816 5816 5816 5816 5815 5814
5679 5683 5689 5689 5691 5699 5702 5700 5700 5706 5710 5711 5713 5719 5725 5724 5721 5724 5725 5724 5727 5725 5727 5733 5736 5742 5747 5753 5765 5770 5772 5776 5776 5777 5782 5785 5787 5789 5790 5792 5793 5793 5794 5795 5797 5799 5799 5801 5802 5803 5805 5805 5806 5807 5807 5808 5808 5808 5808 5808 5809 5809 5808 5809 5809 5809 5809 5809 5810 5810 5811 5810 5810 5811 5811 5811 5811 5811 5811 5812 5812 5812 5812 5811 5810 5810
5676 5679 5684 5685 5688 5693 5694 5692 5695 5701 5703 5705 5711 5716 5716 5713 5715 5719 5717 5719 5722 5720 5722 5729 5733 5736 5740 5748 5760 5766 5769 5772 5770 5770 5775 5779 5783 5784 5785 5788 5788 5789 5790 5791 5792 5793 5795 5797 5797 5799 5801 5801 5802 5803 5803 5803 5804 5804 5804 5804 5805 5805 5805 5805 5805 5805 5805 5806 5806 5806 5807 5806 5806 5807 5807 5807 5807 5807 5807 5808 5808 5808 5807 5807 5806 5806
5673 5674 5678 5682 5684 5685 5686 5685 5688 5696 5699 5700 5705 5708 5707 5709 5711 5712 5712 5715 5718 5716 5718 5724 5726 5729 5738 5748 5755 5760 5764 5765 5765 5766 5768 5771 5775 5778 5780 5783 5783 5784 5784 5785 5787 5789 5790 5792 5793 5794 5796 5797 5797 5798 5798 5799 5799 5800 5800 5801 5801 5801 5801 5801 5801 5802 5802 5802 5802 5802 5803 5803 5803 5803 5803 5803 5803 5803 5804 5804 5803 5803 5802 5802 5801 5801
5665 5665 5671 5676 5677 5676 5679 5682 5687 5695 5696 5695 5699 5702 5703 5706 5705 5705 5707 5708 5710 5711 5713 5717 5717 5724 5740 5748 5748 5753 5757 5757 5760 5762 5761 5763 5767 5770 5774 5776 5776 5778 5779 5780 5782 5784 5786 5788 5789 5790 5790 5792 5793 5793 5794 5794 5795 5796 5796 5797 5797 5797 5797 5798 5798 5798 5798 5798 5798 5798 5799 5799 5799 5799 5798 5799 5799 5799 5799 5799 5798 5798 5798 5797 5797 5797
5658 5661 5667 5670 5669 5669 5675 5684 5688 5689 5689 5690 5695 5698 5700 5702 5701 5701 5700 5700 5705 5706 5708 5711 5710 5719 5738 5744 5743 5749 5751 5751 5754 5756 5758 5760 5760 5763 5767 5769 5770 5772 5773 5775 5777 5779 5781 5783 5784 5785 5785 5786 5787 5788 5789 5790 5791 5791 5792 5792 5793 5793 5794 5794 5794 5794 5794 5794 5794 5795 5795 5795 5795 5795 5795 5795 5795 5795 5795 5794 5794 5793 5793 5793 5792 5792
5655 5657 5659 5660 5661 5664 5671 5677 5678 5679 5681 5683 5687 5691 5694 5693 5692 5694 5695 5698 5702 5701 5705 5708 5702 5712 5734 5741 5741 5745 5746 5747 5751 5752 5755 5758 5756 5757 5759 5762 5765 5767 5767 5769 5771 5773 5775 5776 5777 5779 5780 5781 5782 5783 5784 5785 5786 5787 5787 5788 5788 5789 5789 5789 5790 5790 5790 5790 5790 5790 5790 5790 5790 5790 5790 5790 5790 5790 5790 5790 5789 5789 5789 5788 5788 5787
5647 5647 5649 5653 5657 5660 5663 5665 5668 5673 5675 5674 5677 5684 5687 5686 5688 5692 5693 5696 5696 5694 5700 5701 5695 5709 5732 5737 5737 5740 5741 5743 5746 5748 5751 5752 5752 5753 5753 5755 5758 5760 5762 5763 5764 5766 5768 5769 5771 5772 5774 5775 5776 5778 5779 5780 5781 5782 5782 5783 5783 5784 5784 5784 5785 5785 5785 5786 5786 5786 5786 5786 5786 5786 5786 5786 5785 5785 5785 5785 5785 5784 5784 5784 5783 5782
5640 5640 5644 5648 5649 5651 5653 5654 5657 5665 5668 5668 5673 5679 5682 5685 5688 5688 5689 5690 5687 5687 5695 5694 5691 5710 5730 5734 5734 5737 5738 5740 5742 5742 5743 5745 5747 5749 5749 5749 5750 5752 5755 5756 5757 5759 5761 5763 5764 5765 5767 5769 5770 5772 5773 5774 5776 5776 5777 5778 5778 5779 5779 5779 5780 5780 5781 5781 5781 5781 5781 5781 5781 5781 5781 5781 5781 5781 5781 5780 5780 5780 5780 5779 5778 5777
5633 5633 5636 5638 5638 5640 5644 5648 5656 5664 5668 5668 5670 5673 5677 5681 5682 5682 5685 5684 5680 5685 5692 5687 5690 5710 5725 5727 5730 5732 5733 5734 5736 5735 5736 5738 5741 5743 5744 5744 5745 5746 5748 5750 5751 5753 5754 5756 5757 5758 5760 5762 5763 5765 5767 5768 5769 5770 5772 5772 5773 5774 5774 5774 5775 5775 5776 5776 5776 5776 5776 5776 5776 5776 5776 5776 5776 5776 5776 5776 5776 5775 5774 5774 5773 5772
5624 5624 5627 5629 5629 5634 5641 5651 5660 5664 5661 5659 5662 5668 5672 5674 5676 5678 5677 5673 5677 5685 5684 5683 5692 5706 5714 5720 5726 5727 5726 5727 5729 5729 5730 5732 5733 5735 5738 5739 5739 5741 5741 5742 5744 5746 5748 5749 5750 5752 5753 5755 5756 5758 5759 5761 5762 5764 5765 5766 5767 5768 5768 5769 5769 5770 5770 5770 5770 5770 5770 5770 5771 5771 5771 5771 5771 5771 5771 5771 5770 5770 5769 5768 5768 5767
5616 5616 5620 5623 5625 5630 5639 5648 5652 5650 5647 5649 5654 5660 5664 5666 5669 5669 5665 5668 5678 5678 5673 5682 5694 5699 5706 5716 5721 5721 5720 5720 5721 5721 5722 5724 5725 5727 5730 5732 5734 5735 5735 5736 5738 5740 5743 5744 5744 5746 5747 5748 5749 5751 5752 5754 5755 5757 5759 5760 5761 5761 5762 5763 5763 5764 5764 5764 5765 5765 5765 5765 5766 5766 5767 5766 5766 5766 5766 5765 5765 5764 5763 5763 5762 5761
5611 5611 5617 5620 5621 5627 5634 5639 5640 5639 5639 5642 5645 5649 5654 5656 5657 5658 5659 5667 5673 5667 5667 5682 5690 5689 5698 5710 5713 5715 5714 5712 5713 5715 5715 5716 5719 5721 5722 5725 5729 5730 5729 5731 5732 5734 5736 5737 5738 5739 5739 5741 5743 5744 5745 5746 5748 5750 5751 5752 5754 5754 5755 5756 5757 5758 5758 5759 5759 5759 5760 5761 5761 5761 5761 5761 5761 5760 5760 5759 5759 5758 5757 5757 5756 5756
5605 5607 5614 5617 5616 5620 5627 5630 5631 5632 5632 5634 5637 5641 5645 5646 5647 5649 5653 5660 5664 5660 5665 5677 5680 5679 5689 5702 5709 5710 5707 5705 5708 5710 5711 5712 5712 5713 5714 5717 5722 5724 5724 5725 5726 5727 5728 5729 5730 5731 5733 5735 5736 5737 5738 5739 5741 5743 5744 5745 5746 5747 5748 5749 5750 5751 5752 5753 5753 5754 5754 5755 5755 5755 5755 5755 5754 5754 5754 5753 5752 5752 5751 5751 5750 5750
5600 5603 5610 5613 5609 5610 5618 5623 5623 5624 5624 5625 5628 5632 5636 5638 5639 5641 5644 5650 5654 5654 5659 5668 5670 5672 5684 5697 5703 5702 5699 5701 5704 5705 5706 5706 5704 5704 5705 5708 5713 5716 5717 5720 5720 5719 5719 5720 5722 5724 5725 5727 5728 5729 5730 5732 5734 5736 5737 5738 5739 5740 5742 5743 5744 5745 5746 5746 5747 5747 5748 5748 5748 5748 5748 5748 5748 5747 5747 5746 5746 5745 5745 5744 5744 5744
5595 5598 5604 5605 5599 5600 5612 5618 5616 5618 5618 5613 5614 5621 5627 5630 5634 5637 5640 5644 5647 5650 5655 5659 5659 5667 5684 5694 5693 5691 5693 5696 5697 5698 5698 5697 5696 5697 5697 5700 5704 5708 5711 5714 5713 5712 5712 5713 5714 5716 5717 5718 5719 5721 5723 5725 5727 5728 5729 5731 5732 5734 5736 5737 5738 5738 5739 5740 5740 5740 5741 5741 5741 5742 5742 5742 5741 5740 5740 5740 5739 5739 5739 5738 5738 5738
5590 5592 5596 5597 5591 5594 5608 5612 5611 5612 5603 5593 5602 5618 5624 5628 5633 5635 5635 5637 5640 5644 5646 5646 5652 5667 5681 5683 5680 5684 5691 5690 5688 5688 5688 5687 5689 5690 5691 5695 5698 5700 5703 5705 5705 5704 5705 5706 5707 5708 5709 5709 5712 5714 5715 5716 5718 5720 5721 5723 5726 5728 5729 5730 5731 5732 5733 5733 5733 5733 5734 5734 5735 5735 5735 5734 5734 5733 5733 5733 5733 5733 5732 5732 5733 5733
5582 5585 5587 5589 5585 5589 5601 5606 5603 5595 5581 5582 5606 5622 5622 5624 5628 5627 5627 5630 5633 5635 5636 5639 5649 5660 5668 5672 5674 5680 5685 5682 5679 5679 5679 5680 5682 5684 5687 5690 5691 5691 5693 5695 5696 5697 5697 5699 5699 5699 5701 5703 5704 5705 5705 5707 5710 5711 5713 5716 5719 5721 5722 5723 5724 5725 5726 5726 5727 5727 5727 5728 5728 5728 5727 5727 5726 5726 5726 5726 5726 5726 5726 5726 5727 5726
5577 5579 5580 5582 5580 5584 5595 5597 5586 5574 5574 5591 5612 5618 5614 5616 5618 5617 5616 5620 5623 5625 5629 5634 5641 5651 5661 5668 5671 5673 5675 5673 5670 5669 5670 5673 5676 5678 5681 5683 5683 5683 5683 5684 5686 5688 5689 5690 5691 5693 5694 5695 5695 5694 5695 5699 5702 5703 5705 5709 5711 5714 5715 5717 5717 5718 5719 5719 5719 5719 5720 5721 5721 5720 5719 5719 5719 5719 5719 5719 5719 5719 5720 5720 5720 5720
5572 5574 5575 5577 5576 5579 5585 5582 5571 5571 5583 5595 5603 5606 5605 5606 5609 5609 5607 5612 5620 5622 5623 5627 5634 5644 5653 5658 5662 5666 5666 5662 5658 5659 5664 5669 5672 5673 5673 5674 5674 5673 5673 5674 5676 5679 5681 5682 5683 5685 5686 5685 5684 5685 5688 5692 5694 5695 5698 5702 5704 5706 5708 5709 5710 5710 5711 5711 5711 5712 5712 5713 5713 5712 5712 5711 5711 5712 5712 5712 5712 5713 5713 5714 5713 5713
5567 5568 5570 5571 5571 5573 5575 5573 5572 5576 5581 5584 5590 5598 5601 5600 5604 5605 5601 5606 5617 5619 5617 5619 5625 5634 5641 5647 5655 5658 5653 5647 5645 5651 5662 5667 5666 5665 5663 5663 5664 5664 5664 5667 5668 5671 5673 5673 5675 5676 5676 5676 5676 5679 5683 5686 5687 5689 5692 5695 5697 5698 5700 5701 5702 5702 5702 5703 5703 5704 5705 5705 5704 5704 5704 5704 5704 5704 5705 5705 5706 5706 5707 5707 5706 5706
5561 5562 5565 5565 5565 5568 5569 5568 5570 5569 5569 5578 5589 5596 5598 5597 5600 5599 5592 5593 5605 5611 5611 5612 5618 5625 5633 5640 5647 5647 5640 5634 5634 5647 5661 5662 5656 5654 5654 5654 5654 5654 5656 5659 5660 5661 5663 5665 5666 5667 5667 5667 5670 5674 5678 5679 5680 5683 5686 5688 5690 5690 5691 5693 5694 5694 5694 5694 5694 5695 5696 5696 5696 5696 5696 5696 5697 5697 5697 5698 5699 5699 5699 5699 5699 5699
5555 5557 5560 5560 5560 5563 5563 5563 5564 5562 5566 5580 5589 5590 5590 5589 5591 5592 5583 5582 5598 5609 5608 5608 5611 5617 5625 5633 5636 5635 5627 5621 5626 5644 5655 5649 5642 5643 5642 5641 5643 5645 5647 5651 5651 5650 5653 5654 5655 5656 5657 5660 5665 5669 5670 5669 5671 5675 5677 5680 5681 5682 5684 5685 5685 5684 5685 5685 5685 5686 5686 5687 5687 5688 5688 5689 5689 5689 5690 5691 5691 5692 5692 5692 5691 5691
5549 5551 5553 5553 5554 5559 5559 5557 5558 5560 5566 5576 5581 5582 5582 5582 5584 5583 5575 5579 5598 5606 5602 5603 5606 5610 5618 5622 5620 5617 5614 5613 5623 5637 5638 5630 5628 5631 5631 5633 5637 5638 5640 5643 5643 5643 5644 5644 5644 5646 5648 5652 5656 5658 5657 5658 5661 5665 5668 5670 5671 5673 5677 5676 5674 5674 5675 5675 5675 5676 5677 5678 5679 5679 5680 5680 5681 5681 5682 5683 5684 5684 5684 5684 5683 5683
5544 5546 5547 5548 5551 5554 5554 5553 5554 5557 5564 5570 5572 5574 5577 5576 5575 5574 5574 5584 5596 5597 5594 5596 5597 5599 5606 5608 5605 5606 5610 5611 5616 5622 5621 5619 5622 5624 5625 5628 5630 5630 5631 5634 5635 5636 5636 5636 5638 5640 5642 5645 5647 5648 5647 5648 5652 5656 5660 5661 5663 5667 5668 5665 5663 5664 5665 5665 5667 5667 5668 5669 5670 5670 5671 5671 5672 5674 5674 5676 5676 5676 5676 5676 5676 5676
5540 5541 5542 5545 5547 5549 5550 5550 5550 5553 5561 5566 5566 5568 5571 5569 5566 5569 5577 5583 5586 5585 5587 5588 5587 5590 5595 5596 5598 5603 5605 5605 5608 5611 5613 5614 5616 5617 5619 5621 5622 5623 5625 5626 5628 5628 5628 5630 5632 5635 5638 5640 5640 5640 5640 5641 5645 5650 5651 5653 5657 5660 5657 5653 5654 5656 5656 5657 5659 5660 5660 5661 5661 5661 5662 5663 5664 5666 5667 5668 5669 5669 5669 5669 5669 5669
5535 5536 5538 5541 5543 5544 5545 5545 5546 5551 5560 5562 5559 5560 5563 5563 5563 5568 5573 5575 5576 5579 5580 5578 5579 5583 5585 5587 5591 5594 5595 5597 5601 5603 5604 5606 5608 5610 5611 5612 5614 5617 5620 5621 5622 5622 5621 5624 5627 5629 5633 5634 5632 5633 5634 5635 5638 5642 5643 5646 5650 5650 5646 5645 5647 5648 5648 5650 5651 5652 5652 5652 5652 5653 5654 5654 5656 5657 5659 5660 5661 5662 5662 5662 5662 5662
5529 5531 5533 5536 5538 5538 5540 5543 5546 5552 5556 5555 5552 5554 5557 5558 5560 5564 5565 5566 5569 5571 5571 5571 5573 5575 5576 5579 5582 5583 5586 5590 5592 5594 5596 5598 5601 5603 5604 5605 5607 5610 5612 5614 5616 5616 5615 5618 5621 5623 5625 5625 5625 5625 5626 5628 5631 5634 5636 5640 5642 5639 5637 5639 5640 5641 5643 5644 5644 5645 5645 5645 5646 5646 5646 5647 5648 5650 5651 5652 5653 5654 5654 5654 5655 5655
5525 5527 5528 5530 5532 5534 5537 5542 5546 5548 5549 5548 5548 5550 5552 5554 5555 5556 5557 5560 5562 5563 5564 5565 5566 5567 5569 5571 5573 5576 5579 5581 5584 5587 5589 5591 5593 5595 5596 5598 5600 5602 5604 5606 5608 5608 5609 5611 5614 5616 5617 5618 5618 5618 5619 5621 5623 5626 5630 5633 5632 5630 5631 5633 5633 5635 5638 5638 5638 5639 5639 5639 5640 5640 5640 5640 5641 5643 5644 5645 5646 5646 5646 5647 5647 5648
5520 5521 5524 5526 5528 5530 5535 5539 5542 5542 5542 5542 5543 5545 5547 5549 5550 5550 5551 5553 5555 5556 5557 5558 5559 5562 5563 5564 5567 5570 5571 5573 5577 5580 5580 5583 5586 5588 5588 5590 5592 5594 5595 5597 5598 5599 5600 5603 5606 5609 5610 5611 5610 5610 5612 5613 5615 5618 5621 5623 5621 5622 5624 5625 5626 5629 5631 5631 5632 5633 5633 5633 5633 5633 5633 5633 5634 5635 5637 5637 5638 5639 5639 5639 5640 5640
5515 5517 5520 5522 5524 5527 5532 5535 5536 5535 5535 5536 5539 5541 5543 5544 5544 5543 5545 5548 5550 5551 5552 5553 5554 5556 5558 5559 5561 5562 5563 5566 5570 5571 5572 5575 5578 5580 5581 5582 5584 5585 5587 5588 5589 5589 5591 5595 5598 5600 5602 5603 5603 5603 5604 5605 5607 5609 5611 5611 5612 5614 5616 5618 5620 5622 5623 5623 5624 5625 5625 5626 5625 5625 5626 5626 5627 5628 5629 5630 5631 5631 5632 5632 5633 5633
5511 5514 5516 5518 5520 5524 5529 5531 5530 5529 5531 5532 5534 5536 5536 5537 5538 5539 5542 5546 5547 5548 5547 5547 5547 5549 5552 5553 5553 5554 5556 5559 5561 5562 5565 5567 5570 5573 5574 5574 5576 5577 5579 5580 5580 5580 5583 5587 5590 5591 5594 5595 5596 5596 5597 5599 5600 5600 5601 5603 5605 5607 5609 5611 5612 5614 5615 5616 5617 5617 5618 5618 5617 5618 5619 5619 5620 5621 5622 5622 5624 5624 5625 5625 5625 5625
5508 5511 5513 5514 5516 5520 5526 5528 5525 5524 5526 5527 5528 5530 5531 5532 5534 5536 5538 5540 5542 5542 5542 5540 5540 5542 5544 5546 5546 5547 5549 5551 5553 5554 5556 5559 5562 5564 5566 5567 5568 5569 5571 5572 5573 5573 5575 5578 5580 5583 5585 5587 5588 5589 5590 5592 5593 5593 5594 5596 5597 5599 5601 5603 5604 5606 5607 5608 5609 5610 5611 5610 5610 5611 5612 5612 5613 5614 5614 5615 5616 5617 5617 5617 5617 5618
5504 5507 5509 5509 5512 5517 5522 5523 5519 5518 5521 5523 5523 5524 5526 5527 5529 5531 5532 5534 5535 5535 5535 5534 5534 5536 5537 5539 5540 5540 5542 5544 5545 5545 5548 5552 5554 5555 5557 5559 5561 5562 5563 5564 5565 5566 5568 5569 5571 5574 5576 5578 5579 5580 5582 5584 5585 5586 5587 5588 5589 5591 5592 5593 5595 5597 5599 5601 5602 5603 5603 5603 5603 5604 5605 5605 5606 5606 5607 5608 5608 5609 5609 5609 5610 5610
5500 5503 5503 5504 5507 5513 5517 5516 5512 5513 5517 5520 5518 5518 5520 5522 5523 5525 5527 5527 5527 5528 5527 5526 5528 5529 5531 5532 5532 5532 5535 5537 5537 5537 5540 5544 5544 5545 5547 5550 5552 5554 5556 5556 5557 5559 5560 5561 5563 5565 5567 5570 5571 5573 5575 5577 5577 5578 5579 5580 5581 5582 5583 5584 5586 5587 5589 5592 5594 5595 5595 5595 5595 5596 5597 5598 5598 5599 5599 5600 5600 5601 5601 5602 5602 5602